Location: Madrid
(40.4167°N, 3.7036°W)
Time: 11:33:42
(UTC+00:00)

ISS - Pass Details

Date: 04 March 2026
Orbit: 416 x 427 km, 51.6° (Epoch: 5 March)

Event Time Altitude Azimuth Distance (km) Brightness Sun altitude
Exits shadow 05:50:00 17° 285° (WNW) 1,146 -2.2 -11.1°
Maximum altitude 05:52:11 38° 223° (SW) 652 -3.1 -10.7°
Drops below altitude 10° 05:55:18 10° 154° (SSE) 1,481 -0.6 -10.1°
Sets 05:57:28 0° 146° (SE) 2,339 0.6 -9.7°
